Temperature
18 18 17 17 17 17 17 16 16 16 16 16 15 15 15 15 15 15 15 15 15 15 15 15 14 14 14 14 14 14 14 14 13 13 13 13 14 14 14 14 14 14 14
18 18 17 17 17 17 17 16 16 16 16 16 15 15 15 15 15 15 15 14 14 14 14 14 14 14 14 14 14 14 13 13 13 13 13 13 13 13 13 13 13 14 14
18 18 18 17 17 17 17 16 16 16 16 16 15 15 15 15 15 15 14 14 14 14 14 14 14 14 14 14 14 13 13 13 13 13 13 13 13 13 13 13 13 13 13
18 18 18 17 17 17 17 16 16 16 16 15 15 15 15 15 15 14 14 14 14 14 14 14 13 13 13 13 13 13 13 13 13 13 13 13 13 13 13 13 13 13 13
17 18 18 17 17 17 16 16 16 16 15 15 15 15 15 15 14 14 14 14 14 14 13 13 13 13 13 13 13 13 13 13 13 13 13 13 13 13 13 13 13 13 13
17 17 17 17 17 16 16 16 16 15 15 15 15 15 14 14 14 14 14 14 14 13 13 13 13 13 13 13 13 13 13 13 13 13 12 12 12 13 13 12 13 13 13
17 17 17 17 17 16 16 16 15 15 15 15 15 14 14 14 14 14 14 14 13 13 13 13 13 13 13 13 12 12 13 12 12 12 12 12 12 12 12 12 12 12 12
17 17 17 17 17 16 16 16 15 15 15 15 14 14 14 14 14 14 13 13 13 13 13 13 13 13 12 12 12 12 12 12 12 12 12 12 12 12 12 12 12 12 12
17 17 17 17 17 16 16 16 15 15 15 14 14 14 14 14 14 14 13 13 13 13 13 13 12 12 12 12 12 12 12 12 12 12 12 12 12 12 12 12 12 12 11
16 16 16 16 16 16 16 16 15 15 15 14 14 14 14 14 13 13 13 13 13 13 13 12 12 12 12 12 12 12 12 12 12 12 12 12 12 12 12 12 12 11 11
16 16 16 16 16 16 15 15 15 14 14 14 14 14 14 13 13 13 13 13 13 12 12 12 12 12 12 12 12 12 12 12 12 12 12 12 11 11 11 11 11 11 11
16 16 16 16 15 15 15 15 14 14 14 14 14 13 13 13 13 13 13 13 12 12 12 12 12 12 12 12 12 12 12 12 12 12 11 11 11 11 11 11 11 11 11
16 16 16 15 15 15 15 14 14 14 14 13 13 13 13 13 13 13 12 12 12 12 12 12 12 12 12 12 12 12 11 11 11 11 11 11 11 11 11 11 11 11 11
15 15 15 15 15 14 14 14 14 14 14 13 13 13 13 12 12 12 12 12 12 12 12 12 12 12 11 12 11 11 11 11 11 11 11 11 11 11 11 11 11 11 10
15 15 15 14 14 14 14 13 13 13 13 13 13 13 12 12 12 12 12 12 12 12 12 11 11 11 11 11 11 11 11 11 11 11 11 11 11 11 11 10 10 10 10
14 14 14 14 14 14 13 13 13 13 13 13 13 12 12 12 12 11 11 11 11 11 11 11 11 11 11 11 11 11 11 11 11 11 11 11 10 10 10 10 10 10 10
14 14 14 14 14 14 13 13 13 13 12 12 12 12 12 12 11 11 11 11 11 11 11 11 11 11 11 11 11 11 11 10 10 11 10 10 10 10 10 10 10 10 10
14 14 14 14 14 13 13 13 12 12 12 12 12 12 11 11 11 11 11 11 11 11 11 11 11 11 11 10 10 10 10 10 10 10 10 10 10 10 10 10 10 10 9
14 14 13 13 13 13 13 12 12 12 12 12 11 11 11 11 11 11 11 11 11 10 10 10 10 10 10 10 10 10 10 10 10 10 10 10 10 10 9 9 9 9 9
14 13 13 13 13 13 12 12 12 12 11 11 11 11 11 11 11 11 11 10 10 10 10 10 10 10 10 10 10 10 9 9 9 10 9 9 9 9 9 9 9 9 9
13 13 13 13 12 12 12 12 11 11 11 11 11 11 11 10 10 10 10 10 10 10 10 10 10 9 9 9 9 9 9 9 9 9 9 9 9 9 9 9 9 9 9
13 13 12 12 12 12 11 11 11 11 11 11 11 10 10 10 10 10 10 9 9 9 9 9 9 9 9 9 9 8 8 8 8 8 8 9 9 9 9 8 8 8 8
12 12 12 12 12 11 11 11 11 11 11 10 10 10 10 10 9 9 9 9 9 9 9 9 9 8 8 8 8 8 8 8 8 8 8 8 8 8 8 8 8 8 8
12 12 12 12 11 11 11 11 11 10 10 10 10 10 9 9 9 9 9 9 9 9 8 8 8 8 8 8 7 7 7 7 7 7 7 7 7 7 7 7 7 7 7
11 11 11 11 11 11 10 10 10 10 10 10 9 9 9 9 9 8 8 8 8 8 8 8 7 7 7 7 7 7 7 7 7 7 6 6 7 7 7 7 7 6 6
11 11 11 10 10 10 10 10 10 9 9 9 9 9 8 8 8 8 8 7 7 7 7 7 7 6 6 6 6 6 6 6 6 6 6 6 6 6 6 6 6 6 6
Wind_Speed
5 3 4 5 4 4 4 4 4 3 3 2 2 2 1 1 1 2 2 3 3 3 4 3 2 2 2 2 2 2 3 2 2 2 3 3 3 3 3 2 2 3 3
3 3 4 4 5 5 5 4 4 4 3 2 2 2 2 1 1 1 2 2 2 2 2 2 2 2 2 2 2 2 2 1 2 2 2 2 3 3 3 3 2 2 3
8 6 5 5 5 5 6 6 5 4 4 3 3 2 2 2 2 1 1 1 1 2 2 2 2 2 2 1 1 2 2 1 1 1 2 2 2 2 3 2 3 3 2
7 6 6 6 6 6 6 6 5 5 4 4 4 4 3 2 2 1 1 0 1 1 1 2 2 2 1 1 1 1 1 2 1 1 1 1 2 2 1 3 3 3 2
7 7 7 7 6 5 5 5 5 4 4 4 5 4 3 2 1 1 1 0 0 0 1 1 1 1 1 2 1 1 1 1 2 1 1 1 1 1 2 1 3 3 2
6 6 5 5 4 4 4 4 4 4 4 4 4 5 4 3 2 1 1 1 1 1 1 1 1 1 2 2 2 2 2 2 1 1 2 2 2 2 2 2 2 2 3
5 6 5 6 6 5 5 5 5 4 4 5 4 5 5 5 4 3 3 2 1 2 3 2 2 2 2 2 2 3 2 2 2 3 2 3 2 2 2 2 2 1 2
4 6 6 6 6 6 6 6 6 5 5 5 5 4 4 3 3 4 3 3 3 3 3 3 3 3 3 2 2 2 3 2 3 3 2 2 3 2 3 3 3 1 1
3 5 5 5 6 7 7 7 7 5 4 5 4 4 4 3 4 3 3 3 3 3 3 3 3 3 3 3 2 2 3 2 3 3 3 2 1 2 2 2 3 4 2
2 2 3 4 4 5 6 6 6 6 5 4 4 4 4 4 4 3 3 3 3 3 2 2 3 3 3 2 2 3 3 3 2 2 2 2 1 1 1 2 2 3 3
3 3 2 3 3 3 4 5 5 4 4 4 4 4 4 4 3 3 4 4 3 3 3 3 2 2 3 3 3 3 3 4 3 2 3 3 2 1 1 1 1 2 2
2 2 2 2 2 2 2 3 4 4 4 3 3 3 3 3 3 4 4 4 3 3 3 3 2 2 3 3 3 4 4 4 4 4 3 3 2 2 2 2 2 2 3
1 1 1 2 2 2 2 2 3 4 3 3 3 3 3 3 4 4 4 4 4 3 3 3 3 3 3 3 3 3 4 5 4 4 5 4 4 3 3 3 3 2 2
2 1 1 1 2 2 2 2 2 3 3 3 3 3 4 4 5 4 4 4 4 4 4 4 4 4 4 3 3 3 3 4 4 4 4 4 5 5 4 4 4 3 2
1 1 2 2 2 2 2 2 3 3 3 3 3 4 4 3 3 3 3 3 3 4 4 4 4 4 4 4 4 4 4 3 3 3 4 4 5 6 5 4 4 4 3
3 2 2 2 2 3 3 3 3 3 3 3 4 4 3 3 3 4 3 3 3 3 3 4 4 4 4 5 5 4 4 4 3 3 3 3 4 5 6 6 5 6 5
3 3 3 3 3 3 3 3 4 3 2 3 4 3 3 3 4 3 3 3 4 3 4 4 4 5 6 6 5 5 4 4 4 4 3 3 3 3 3 5 5 5 5
3 2 2 2 2 2 1 2 1 2 2 3 3 3 3 3 3 3 4 4 3 3 4 5 5 5 6 6 5 5 3 3 3 4 4 4 3 3 3 2 2 3 4
3 3 3 2 2 1 1 1 1 0 1 2 3 3 3 3 3 4 5 4 3 3 3 3 4 5 6 6 5 4 2 2 3 3 3 3 4 4 3 3 2 3 4
0 1 1 1 1 1 1 2 1 1 2 4 4 3 3 4 4 5 4 3 3 4 3 3 4 4 5 5 4 4 3 3 3 2 3 4 4 4 3 3 3 4 5
1 1 2 1 1 1 2 2 1 3 4 3 1 1 2 3 3 3 3 2 3 2 2 3 3 3 3 4 4 4 3 4 3 3 3 3 5 5 4 4 5 6 4
1 1 2 0 0 1 2 2 2 4 2 0 0 1 1 1 1 1 2 2 2 2 2 2 2 2 3 2 3 3 4 3 3 4 3 4 4 5 5 4 5 5 3
0 0 1 1 0 1 2 2 3 2 1 1 0 1 1 1 1 1 2 1 1 2 2 2 2 2 2 2 2 2 2 3 3 3 3 3 3 3 3 3 3 3 2
1 0 1 1 1 1 2 3 2 1 1 1 1 1 1 1 1 1 1 1 2 2 2 2 2 2 2 1 1 1 1 1 1 2 2 2 2 1 1 2 1 1 2
1 1 1 1 1 1 1 2 1 1 2 1 1 1 1 0 0 1 1 1 2 3 3 3 3 3 3 3 3 2 2 2 2 1 0 1 1 1 1 2 1 1 1
1 1 1 0 1 1 2 2 1 1 2 1 1 1 1 0 0 1 2 3 2 2 2 2 1 2 3 3 2 2 2 2 2 2 1 1 1 2 2 2 2 1 1
Wind_Direction
227 201 190 173 160 156 153 152 146 144 134 127 127 116 103 72 60 58 83 91 98 101 95 81 75 76 88 90 89 87 76 58 50 67 32 8 14 28 14 8 21 18 15
214 200 185 173 173 174 171 166 166 160 160 161 156 145 138 121 109 47 60 80 106 114 108 95 105 95 94 89 81 88 94 54 45 94 83 16 353 356 4 4 10 352 7
205 199 186 187 181 182 184 182 179 173 168 150 119 91 73 54 43 43 51 37 118 131 118 120 112 109 111 130 135 118 124 138 30 63 129 134 227 308 336 357 6 1 0
203 195 189 187 191 195 187 179 175 169 162 149 142 142 149 168 204 195 200 44 104 149 146 145 136 136 137 155 184 141 141 142 148 35 59 139 158 153 324 331 343 352 351
200 194 194 191 192 185 177 176 168 169 167 161 161 154 155 170 162 120 118 122 353 210 186 183 168 171 178 193 189 153 177 172 167 164 144 98 70 125 159 273 318 336 321
199 192 187 177 177 170 167 165 167 176 174 169 166 167 170 165 149 153 181 213 266 266 255 221 217 211 205 211 209 198 193 193 186 183 180 169 169 181 170 199 259 294 303
191 185 181 181 180 177 179 178 174 183 184 179 182 187 185 180 187 196 203 210 231 251 248 235 227 230 232 223 201 201 209 203 201 204 211 208 209 173 167 168 199 256 292
185 190 194 191 188 186 184 183 185 189 187 189 199 195 188 190 204 205 207 216 225 237 242 239 238 237 240 233 203 211 217 207 214 216 210 213 217 195 178 171 162 170 305
191 199 199 192 190 188 187 185 184 188 191 197 197 195 195 200 216 222 217 228 240 243 244 242 239 241 233 224 208 226 231 208 214 216 209 207 221 198 198 184 174 166 206
197 204 199 195 196 193 186 179 181 187 191 190 194 200 206 212 218 221 230 239 245 244 236 249 249 248 239 227 212 225 227 206 218 208 197 214 230 194 181 189 189 179 182
208 202 191 185 178 171 170 176 185 189 190 193 195 200 210 213 212 221 236 238 238 229 229 235 245 254 254 235 217 224 210 204 214 209 199 213 205 195 190 166 170 187 174
208 194 171 140 132 152 172 182 192 198 204 198 196 206 212 206 213 228 232 223 229 226 224 225 235 250 256 238 219 228 216 205 209 213 204 216 203 202 204 189 193 201 190
129 103 119 143 163 175 181 190 200 203 201 186 188 207 215 213 222 231 232 224 226 230 223 217 228 242 246 242 237 229 221 211 212 209 206 213 197 214 215 200 203 208 195
136 125 155 186 192 198 200 203 215 206 194 184 190 210 225 225 224 229 232 229 224 225 227 229 232 237 239 239 234 226 229 222 220 217 210 207 203 214 209 205 206 197 180
158 187 210 220 207 204 212 218 226 224 200 186 202 224 234 232 225 227 235 236 231 233 229 228 240 244 240 237 231 221 218 223 228 227 220 219 217 220 210 208 199 185 183
225 226 228 231 223 218 220 223 229 228 199 198 218 228 225 224 227 231 232 236 243 242 233 228 230 242 251 255 239 224 209 213 218 230 237 235 232 241 227 223 205 189 188
229 222 229 231 233 228 216 215 229 226 208 219 228 225 221 228 235 232 224 231 240 240 240 239 234 242 253 259 248 230 204 206 215 220 232 244 241 234 236 234 222 215 208
232 233 236 238 235 220 214 216 211 202 212 226 235 234 226 233 239 228 228 235 234 234 237 239 238 241 252 255 247 232 205 212 226 224 222 233 253 240 211 205 219 232 230
228 219 216 215 214 223 222 158 155 170 222 241 244 240 228 227 226 229 236 236 231 239 244 243 240 243 254 250 241 221 197 222 243 246 235 232 246 254 209 187 219 251 261
180 172 165 125 133 246 175 145 188 208 243 249 248 240 229 226 230 233 236 237 225 235 244 255 251 247 252 250 233 204 194 220 248 258 255 245 245 258 219 204 214 241 255
139 128 121 129 207 187 138 154 195 242 251 254 256 250 241 236 237 242 244 232 221 229 242 255 269 267 262 257 231 204 195 208 230 248 263 267 262 260 255 228 222 236 238
58 120 123 118 357 132 144 172 231 252 261 214 180 284 279 273 290 247 256 233 202 206 236 251 283 294 288 278 256 229 218 209 212 241 254 264 271 262 259 245 242 243 233
66 121 138 120 15 176 169 204 253 265 231 169 253 288 312 300 274 220 231 241 204 203 223 225 247 284 302 299 292 274 255 250 238 241 251 268 284 277 271 261 252 234 214
343 34 98 108 275 263 235 237 257 240 199 212 259 273 283 314 318 272 229 226 223 224 227 230 237 254 278 278 263 246 246 248 263 276 292 315 317 305 291 299 289 250 219
343 71 142 190 263 288 283 285 253 209 217 229 251 276 265 203 344 319 271 247 239 235 227 226 218 212 241 263 254 222 221 213 208 175 78 14 357 341 330 320 306 290 264
9 31 27 142 291 302 290 296 263 195 191 212 245 240 223 189 195 320 335 335 333 328 315 296 248 246 268 286 264 256 258 240 196 134 135 226 257 264 270 280 293 282 266
Height
1519 1521 1523 1524 1526 1527 1528 1530 1531 1531 1532 1533 1533 1534 1534 1535 1535 1535 1535 1535 1535 1535 1535 1535 1535 1534 1534 1534 1534 1534 1534 1534 1534 1534 1534 1535 1535 1535 1535 1535 1535 1535 1535
1517 1519 1520 1522 1524 1525 1527 1528 1529 1530 1531 1532 1533 1533 1534 1534 1535 1535 1535 1535 1535 1535 1535 1535 1534 1534 1534 1534 1533 1533 1533 1534 1534 1534 1534 1534 1535 1534 1534 1534 1535 1535 1535
1513 1516 1518 1520 1521 1523 1524 1526 1528 1529 1530 1531 1532 1533 1533 1534 1534 1534 1534 1534 1534 1534 1534 1534 1534 1534 1533 1533 1533 1533 1533 1533 1534 1534 1534 1534 1534 1534 1534 1534 1534 1534 1534
1511 1513 1515 1517 1519 1521 1523 1524 1526 1527 1528 1529 1530 1531 1531 1532 1532 1533 1533 1533 1533 1534 1533 1533 1533 1533 1533 1532 1532 1532 1532 1532 1532 1533 1533 1534 1533 1533 1533 1533 1533 1533 1533
1508 1510 1512 1515 1517 1519 1520 1522 1524 1525 1527 1528 1529 1530 1530 1531 1532 1532 1532 1532 1532 1532 1532 1532 1532 1532 1531 1531 1531 1531 1531 1531 1531 1531 1531 1532 1532 1532 1532 1531 1532 1532 1532
1505 1507 1510 1513 1515 1517 1519 1520 1522 1523 1525 1526 1527 1528 1529 1530 1530 1530 1531 1531 1531 1531 1531 1531 1530 1530 1530 1530 1530 1530 1530 1529 1530 1530 1529 1530 1530 1530 1530 1530 1530 1530 1530
1502 1505 1507 1510 1512 1514 1516 1518 1520 1521 1522 1524 1525 1526 1527 1528 1529 1529 1529 1529 1529 1529 1529 1529 1529 1528 1528 1528 1528 1528 1528 1528 1528 1528 1528 1528 1528 1529 1529 1529 1528 1528 1528
1500 1502 1505 1507 1509 1511 1513 1515 1517 1518 1520 1521 1523 1524 1525 1526 1527 1527 1527 1527 1527 1527 1527 1527 1527 1527 1527 1526 1526 1526 1526 1526 1526 1526 1526 1526 1526 1526 1526 1527 1527 1526 1526
1499 1501 1503 1504 1506 1508 1510 1512 1514 1516 1517 1519 1520 1522 1523 1524 1524 1525 1525 1525 1525 1525 1525 1525 1525 1525 1524 1524 1524 1523 1523 1524 1524 1524 1524 1524 1524 1524 1524 1524 1525 1525 1524
1498 1500 1501 1503 1504 1506 1508 1510 1511 1513 1515 1516 1517 1519 1520 1521 1522 1523 1523 1523 1523 1523 1523 1523 1522 1522 1522 1522 1521 1521 1521 1521 1521 1521 1521 1521 1521 1521 1521 1522 1522 1522 1523
1498 1499 1500 1501 1503 1504 1506 1507 1509 1511 1512 1514 1515 1516 1517 1518 1519 1520 1520 1520 1521 1521 1520 1520 1520 1520 1520 1519 1519 1518 1518 1518 1518 1518 1518 1519 1519 1519 1519 1519 1519 1519 1519
1497 1498 1499 1500 1501 1502 1503 1505 1506 1508 1510 1511 1512 1513 1514 1516 1516 1517 1517 1518 1518 1518 1518 1518 1517 1517 1517 1516 1516 1515 1515 1515 1515 1515 1515 1516 1516 1516 1516 1516 1516 1516 1516
1497 1497 1498 1499 1500 1501 1502 1503 1504 1505 1507 1509 1509 1510 1511 1512 1513 1514 1514 1514 1515 1515 1515 1515 1514 1514 1514 1513 1513 1512 1512 1512 1512 1512 1512 1512 1513 1513 1513 1513 1513 1513 1513
1496 1497 1497 1498 1499 1499 1500 1501 1502 1503 1505 1506 1506 1507 1508 1508 1509 1510 1511 1511 1511 1511 1512 1511 1511 1511 1511 1510 1510 1509 1509 1508 1508 1508 1508 1509 1509 1509 1510 1510 1510 1510 1510
1495 1495 1496 1496 1497 1497 1498 1499 1500 1501 1502 1503 1503 1504 1505 1505 1506 1506 1507 1507 1507 1508 1508 1508 1508 1507 1507 1507 1506 1506 1506 1505 1505 1505 1505 1505 1505 1506 1506 1506 1506 1506 1506
1494 1494 1494 1494 1494 1495 1496 1497 1497 1498 1499 1499 1500 1501 1501 1502 1502 1502 1503 1503 1503 1504 1504 1504 1504 1503 1503 1503 1503 1503 1502 1502 1502 1501 1501 1502 1502 1502 1502 1502 1503 1503 1503
1492 1492 1492 1492 1492 1493 1493 1494 1495 1495 1496 1497 1497 1498 1498 1498 1499 1499 1499 1499 1499 1500 1500 1500 1500 1499 1499 1499 1499 1499 1499 1499 1498 1498 1498 1498 1498 1499 1499 1499 1499 1499 1499
1490 1490 1490 1490 1490 1491 1491 1492 1492 1493 1493 1494 1494 1495 1495 1495 1496 1496 1496 1496 1496 1496 1496 1495 1495 1495 1495 1495 1495 1495 1495 1495 1495 1495 1495 1495 1495 1495 1495 1495 1495 1495 1496
1488 1488 1488 1488 1488 1488 1489 1490 1490 1490 1491 1491 1491 1492 1492 1492 1492 1492 1492 1492 1492 1492 1492 1491 1491 1491 1491 1491 1491 1491 1491 1491 1491 1491 1491 1491 1491 1492 1492 1491 1491 1492 1492
1486 1486 1486 1486 1486 1486 1487 1487 1487 1487 1488 1488 1488 1489 1489 1489 1489 1489 1489 1489 1488 1488 1488 1487 1487 1487 1486 1487 1487 1487 1487 1487 1487 1487 1487 1487 1488 1488 1488 1488 1487 1487 1487
1484 1484 1484 1484 1484 1484 1484 1484 1485 1485 1485 1485 1486 1486 1486 1486 1486 1485 1485 1485 1484 1484 1483 1483 1483 1483 1482 1482 1483 1483 1483 1483 1483 1483 1483 1483 1483 1483 1484 1484 1483 1483 1484
1482 1482 1481 1481 1482 1482 1482 1482 1482 1483 1483 1483 1483 1483 1482 1482 1482 1481 1481 1481 1480 1480 1479 1479 1479 1479 1479 1479 1479 1479 1479 1479 1479 1479 1479 1479 1479 1479 1479 1479 1479 1480 1480
1480 1480 1479 1479 1479 1480 1480 1480 1480 1481 1480 1480 1480 1480 1479 1479 1478 1478 1478 1477 1477 1476 1476 1475 1475 1475 1475 1475 1475 1475 1475 1475 1475 1475 1475 1475 1475 1475 1475 1475 1475 1475 1475
1478 1478 1477 1477 1477 1478 1478 1478 1478 1478 1478 1477 1477 1477 1476 1475 1475 1475 1474 1473 1473 1472 1472 1472 1471 1471 1471 1471 1471 1471 1471 1471 1471 1471 1471 1471 1471 1470 1470 1470 1470 1470 1470
1477 1476 1475 1475 1475 1476 1476 1476 1476 1476 1475 1475 1474 1474 1473 1472 1472 1471 1471 1470 1469 1469 1469 1468 1468 1468 1467 1468 1468 1467 1467 1467 1467 1467 1466 1466 1466 1466 1466 1466 1466 1466 1466
1475 1474 1474 1473 1473 1473 1473 1473 1473 1473 1472 1471 1471 1471 1470 1469 1469 1468 1467 1467 1466 1466 1465 1465 1465 1464 1465 1464 1464 1464 1464 1463 1463 1463 1462 1462 1462 1462 1462 1462 1462 1462 1462